Wind_Speed
35 35 34 33 33 34 34 35 38 41 45 48 51 50 46 48 51 44 36 34 30 28 25 20 18 20 20 21 24 25 25 24 21 19 18 18 18 17 16 16 16 14 14 14 14 15 14 14 14 14 16 17 16 16 16 16 17 18 18 19 19 18 19 20 20 18 17 18 18 19 20 20 20 19 17 16 16 17 19 20 20 20 21 23 25
36 33 33 33 33 33 33 33 34 36 40 44 49 50 45 46 52 51 41 37 33 29 27 23 20 21 21 22 23 26 27 26 24 22 21 21 20 19 18 17 16 15 15 15 14 15 15 15 14 15 16 17 16 16 16 16 17 18 19 20 19 19 19 21 22 21 19 19 19 20 20 20 20 19 18 17 16 17 19 19 20 20 21 23 25
35 33 33 33 33 33 32 32 33 35 38 41 46 50 44 40 48 53 46 40 37 33 30 27 23 21 22 23 24 26 28 28 27 23 22 23 23 22 20 18 17 17 17 16 15 16 16 15 15 15 16 17 16 17 17 17 18 19 19 20 20 19 20 21 23 22 22 21 21 21 20 20 20 19 19 18 17 17 18 19 20 20 21 23 24
34 35 36 35 35 35 33 32 33 34 38 40 44 49 47 42 45 50 47 42 39 36 34 31 28 25 24 25 26 28 29 29 29 25 23 23 24 24 22 20 19 19 18 17 17 17 16 16 15 15 16 17 16 16 17 17 18 19 20 20 20 20 20 22 23 23 24 23 22 21 21 20 20 19 19 19 17 18 18 19 19 20 20 22 24
36 36 36 35 35 36 36 34 33 34 37 40 43 48 49 45 42 44 46 44 40 38 36 34 32 30 28 27 28 29 30 31 30 28 26 25 25 25 24 22 21 21 20 19 19 18 17 16 16 17 17 17 16 16 17 18 19 20 21 21 20 21 21 23 23 24 25 24 24 23 22 20 19 19 20 19 18 18 19 19 19 19 20 22 23
42 39 37 36 36 36 37 36 36 35 35 39 43 47 51 48 41 39 43 44 41 38 37 35 34 32 30 29 28 29 31 33 32 31 30 29 28 27 26 24 23 23 22 21 20 20 18 17 17 18 19 17 16 16 17 18 20 21 21 21 21 22 23 23 23 24 25 25 24 24 22 20 20 20 20 19 18 18 18 19 19 19 20 21 21
48 44 39 37 38 37 37 37 38 36 35 37 41 46 49 46 40 38 42 45 44 41 38 36 35 33 30 29 28 29 32 34 34 33 32 32 32 31 29 26 24 24 24 23 22 21 20 18 18 19 20 18 17 17 18 19 20 21 21 22 23 24 24 23 24 25 25 25 24 23 22 21 21 21 20 19 19 18 18 19 20 20 21 22 21
48 42 38 37 39 39 37 37 38 38 37 38 41 44 44 42 40 41 43 45 45 43 40 38 37 34 32 30 29 29 32 35 35 34 34 35 35 34 32 29 27 25 25 24 23 22 21 20 20 20 20 20 18 18 18 20 21 22 21 22 24 25 25 24 25 26 26 25 24 23 23 23 22 22 21 20 19 18 18 20 20 20 21 22 22
40 33 34 37 41 41 39 38 38 39 41 42 42 44 44 43 42 43 44 44 42 41 39 38 38 36 33 31 30 31 32 33 34 35 36 36 37 36 34 32 30 28 26 26 25 23 23 22 22 21 21 20 20 20 19 20 21 22 22 23 25 26 26 26 26 26 26 25 24 23 24 24 23 23 23 21 20 19 20 21 20 20 22 23 22
36 31 30 33 37 39 39 39 38 39 43 45 44 45 45 44 44 44 44 42 40 39 38 39 39 38 35 33 32 32 31 31 33 36 37 36 36 36 35 34 32 30 29 28 26 25 24 24 23 23 22 22 22 21 20 21 21 22 23 24 25 26 27 27 28 28 27 26 24 24 25 24 23 24 24 22 22 22 21 21 21 21 22 22 22
38 35 30 29 31 34 35 37 39 40 43 46 47 46 46 46 45 44 44 41 39 39 39 39 40 39 37 35 32 30 29 30 33 36 36 36 34 34 34 34 33 32 31 30 28 26 25 25 25 25 25 24 22 21 21 21 21 22 23 24 25 26 27 28 28 29 28 27 25 25 26 24 23 24 24 24 24 23 22 22 22 23 23 22 21
32 30 30 30 31 32 33 37 40 42 43 46 49 49 49 48 46 45 44 41 39 38 38 37 37 37 37 34 30 28 28 29 32 35 35 35 33 32 32 32 32 32 32 31 30 28 27 26 27 27 27 26 24 22 22 22 22 22 23 24 25 26 27 28 28 29 30 29 28 27 26 25 25 25 25 25 25 25 24 23 23 23 23 23 21
28 30 31 32 33 33 34 37 41 45 46 46 49 51 51 50 48 47 44 40 38 38 37 36 36 37 36 33 28 27 28 28 30 33 34 34 32 31 29 28 29 31 31 32 31 30 29 28 28 28 29 28 26 24 22 22 22 23 23 24 25 26 27 27 28 30 30 31 31 29 27 27 27 26 25 26 28 27 25 24 23 23 23 23 21
33 36 37 37 37 38 39 39 41 45 47 48 48 49 51 51 50 48 44 41 40 39 37 37 38 39 37 33 30 29 29 28 28 29 31 32 31 30 28 27 27 29 30 31 31 32 31 30 29 29 29 29 28 26 24 23 23 23 24 25 25 26 27 28 29 30 31 32 32 31 29 29 28 27 27 29 31 29 27 25 23 22 23 22 21
38 39 41 42 42 42 43 43 43 44 46 49 49 48 49 50 51 49 45 42 41 39 38 40 41 42 40 36 33 32 30 27 25 27 29 30 30 30 29 27 26 27 29 30 30 31 32 32 31 30 29 30 30 28 25 24 24 24 24 25 25 26 27 28 29 30 30 32 32 32 31 30 29 29 30 32 32 30 28 28 25 23 22 21 20
40 41 42 43 44 45 44 45 46 46 46 48 49 49 49 48 49 49 46 43 42 41 41 41 43 44 44 42 39 36 33 28 25 25 26 29 30 30 30 29 27 28 30 31 30 30 32 33 32 31 30 29 30 29 27 26 26 26 25 24 25 27 28 28 29 29 30 31 32 32 31 30 30 30 30 32 32 30 29 30 28 23 21 21 20
44 43 43 43 45 46 45 45 47 48 49 48 47 46 47 47 46 47 47 46 45 44 43 43 43 44 46 46 45 42 39 35 30 27 26 28 30 31 31 31 30 29 31 32 32 30 31 32 33 32 31 30 30 30 30 29 28 27 25 25 26 27 28 28 29 29 29 30 30 31 31 30 29 28 29 30 30 29 30 31 29 24 22 22 20
48 47 46 44 44 45 46 46 46 46 48 48 47 46 47 47 46 46 48 49 48 47 46 45 45 45 46 48 48 46 44 42 39 37 34 32 32 33 33 33 32 30 31 33 33 32 31 32 33 34 33 31 29 30 30 31 30 28 26 26 28 29 28 28 28 28 29 29 29 29 30 30 29 29 29 30 28 27 28 29 28 27 25 23 20
51 51 51 50 47 44 44 46 46 45 45 45 45 45 47 47 45 45 48 50 50 50 49 48 48 48 48 48 49 49 48 46 45 44 42 38 36 36 36 36 35 32 32 33 34 34 32 31 32 34 34 32 30 29 30 31 31 30 28 30 31 30 28 28 28 28 29 29 29 29 30 30 30 29 29 29 28 25 24 24 26 27 26 23 21
53 53 54 54 52 48 45 46 47 47 45 44 44 43 42 44 45 44 45 47 50 50 50 49 50 50 50 51 52 52 51 49 49 49 46 42 40 40 40 39 37 35 34 33 34 35 34 32 32 33 34 32 31 29 29 30 31 30 31 32 32 30 29 29 30 31 31 31 30 30 31 31 31 30 29 28 27 24 22 22 24 26 26 25 23
56 55 55 57 57 53 50 49 49 49 48 45 44 44 42 42 44 46 43 43 46 49 50 49 49 50 50 51 52 53 52 51 50 49 48 45 42 42 43 41 39 38 37 35 34 36 36 33 30 31 32 32 30 30 29 30 30 32 34 34 33 32 31 31 32 33 33 33 33 32 32 32 31 29 28 27 25 22 22 23 24 26 27 26 24
57 55 54 56 59 58 55 53 52 52 51 49 46 45 45 43 43 47 46 42 40 44 48 50 51 50 51 51 51 51 50 49 49 49 47 45 44 44 44 43 42 42 40 37 35 36 38 35 29 28 29 29 30 30 30 30 31 33 35 35 35 35 34 32 33 34 35 35 35 34 34 32 30 28 27 25 23 22 23 24 25 26 28 27 26
54 53 53 53 56 59 58 55 53 52 53 54 52 49 48 46 45 46 47 43 39 40 43 48 51 53 53 53 52 50 47 46 48 48 46 44 43 43 44 44 44 44 43 39 37 38 39 36 32 30 29 30 31 32 31 31 32 33 34 34 35 36 34 33 33 34 35 36 35 35 35 33 29 27 25 22 21 22 24 25 26 28 28 28 27
53 53 53 52 51 53 54 52 51 51 52 55 57 55 52 49 47 47 48 47 45 42 40 41 46 51 54 54 54 52 49 46 46 46 45 43 42 42 43 44 45 45 44 40 39 40 39 37 35 33 32 33 34 34 33 33 33 34 34 33 34 36 35 33 33 33 34 34 34 35 35 31 27 24 22 22 23 25 26 27 27 28 28 28 27
52 53 53 52 51 50 49 48 48 48 50 53 56 58 56 52 48 49 50 50 50 47 42 41 43 45 47 50 51 51 48 47 46 46 46 44 43 42 43 45 45 44 44 42 41 41 38 35 34 33 33 34 36 36 36 36 34 34 33 32 35 37 37 34 33 33 33 32 32 34 33 29 25 23 23 25 27 28 28 27 27 27 27 27 27
49 50 51 51 51 50 49 48 47 47 48 51 53 55 56 53 48 46 47 47 48 48 44 44 46 46 44 44 45 47 48 47 48 48 47 47 46 44 45 47 47 45 44 43 42 42 39 36 36 35 34 36 37 38 38 37 35 34 34 34 37 40 39 35 31 30 31 30 30 32 31 27 25 26 27 29 29 28 27 26 26 27 27 27 26
48 48 47 47 48 50 50 49 47 47 47 49 50 52 55 55 52 48 46 45 46 47 47 46 47 47 46 43 43 44 46 47 49 48 48 49 49 47 47 49 48 46 44 43 43 43 40 38 38 38 38 39 39 39 39 39 37 37 36 35 38 40 38 34 31 30 31 31 31 30 30 29 29 29 29 30 29 28 27 27 27 27 27 27 26
48 46 46 46 46 47 49 48 47 47 47 47 48 49 52 55 56 54 52 49 47 48 49 48 48 48 47 47 46 46 46 48 50 50 49 50 50 49 50 52 51 48 45 45 45 43 40 37 37 39 41 42 40 40 40 39 38 38 37 36 38 40 40 37 34 32 31 32 32 32 33 32 31 30 30 30 29 28 27 27 27 26 26 26 25
47 46 44 45 45 45 45 46 45 46 45 44 45 47 49 51 54 56 56 55 53 52 52 52 51 48 46 49 52 52 51 49 48 49 50 50 50 51 53 55 54 50 47 47 45 42 39 37 37 38 40 40 39 39 39 38 37 38 38 37 39 41 42 41 38 34 32 33 34 34 34 33 31 30 31 30 29 28 27 27 27 26 26 25 23
44 45 42 42 43 42 41 41 41 42 41 40 41 43 44 46 49 52 54 55 55 54 54 55 53 49 48 50 53 56 57 53 48 47 49 49 49 51 54 55 53 50 47 45 43 39 36 37 38 38 38 37 36 36 37 37 37 37 38 37 37 40 42 42 40 37 35 36 36 35 34 33 32 31 32 31 29 28 28 27 26 25 25 24 21
40 42 39 39 40 39 38 38 38 38 38 38 38 39 40 42 45 48 51 52 50 49 50 51 50 49 48 48 49 52 55 54 50 48 47 47 48 50 51 52 52 48 43 41 41 39 38 39 41 40 37 36 35 35 37 37 37 38 37 36 37 39 40 41 42 41 39 37 37 35 34 33 32 32 33 32 31 29 28 28 26 25 24 23 22
31 34 32 33 35 37 38 39 38 38 38 38 37 38 39 41 43 46 48 49 48 45 44 45 46 45 45 46 45 45 47 49 49 48 46 46 47 48 48 48 49 46 40 38 39 39 38 39 39 37 36 35 35 35 37 38 38 37 36 35 36 36 36 39 43 43 40 37 36 35 34 33 32 32 33 33 31 30 29 28 25 23 23 23 24
15 18 20 23 26 29 33 35 36 37 38 38 39 38 38 40 42 45 46 46 45 43 43 44 45 44 44 44 44 43 45 47 46 46 45 45 46 47 46 44 41 39 37 37 37 36 35 34 35 35 35 34 34 36 38 38 37 36 36 36 34 33 38 44 46 43 41 37 35 35 35 34 33 33 34 34 32 30 29 28 25 22 23 24 25
12 9 8 9 12 15 19 22 24 26 27 30 32 33 33 34 37 40 42 43 44 44 44 46 46 44 43 42 41 41 43 42 39 40 43 45 46 47 46 41 36 34 34 34 34 32 30 31 32 33 33 33 34 36 37 36 36 36 36 35 33 33 39 44 41 41 44 41 36 37 37 36 35 35 35 33 31 30 28 26 24 23 23 24 25
13 11 9 6 5 6 7 8 10 12 15 18 22 26 28 29 30 32 34 37 40 41 42 43 42 41 40 38 37 37 38 36 35 37 41 44 45 45 43 39 36 35 34 34 33 30 27 28 30 31 32 33 33 33 33 33 34 33 33 33 32 32 34 35 35 41 48 43 36 36 37 35 35 35 34 32 30 29 26 25 24 23 23 24 24
14 12 10 9 6 6 6 5 5 6 9 12 15 18 21 23 25 26 27 27 28 30 33 36 37 38 37 36 35 35 34 32 33 35 38 41 43 41 39 37 37 37 35 34 34 31 29 31 32 32 32 33 32 32 32 32 32 31 31 33 32 31 31 30 32 40 47 42 36 36 35 35 36 36 33 30 29 27 25 25 25 24 24 24 24
14 12 10 9 8 6 4 3 4 4 5 7 8 10 11 12 15 18 19 19 19 18 22 27 31 33 34 32 31 32 32 33 35 36 36 40 43 42 38 35 33 34 35 34 32 31 31 32 33 33 34 34 33 32 32 32 32 32 32 33 32 31 29 29 34 41 44 41 38 37 35 35 38 37 33 29 28 26 25 25 25 25 25 24 25
12 12 11 10 8 7 5 3 2 1 2 2 3 4 4 5 7 10 13 16 18 17 17 17 18 20 23 23 22 24 26 31 36 38 36 36 39 41 39 34 29 29 31 31 31 31 31 32 33 33 33 33 33 33 34 35 35 34 33 32 32 31 30 34 43 48 43 38 38 38 36 37 39 37 32 29 27 26 26 26 26 26 26 25 25
11 11 11 11 10 9 8 6 4 3 1 1 1 2 2 3 4 5 7 11 14 15 14 11 9 11 16 18 20 20 18 19 26 34 36 34 35 34 33 32 31 32 33 33 33 34 34 35 36 36 35 36 37 37 38 39 37 35 34 33 34 33 32 36 45 49 42 36 36 38 38 39 38 35 32 28 26 26 26 26 27 27 26 25 24
11 11 10 8 7 8 9 7 5 4 4 2 1 2 4 5 6 6 7 8 9 10 10 9 8 10 13 14 16 16 13 12 13 21 25 27 28 27 28 31 34 37 38 37 37 37 37 38 39 39 38 39 39 40 41 41 39 38 39 39 39 40 40 41 47 49 42 36 37 39 39 39 37 34 30 27 25 25 26 27 28 28 27 25 24
10 10 10 9 7 6 6 5 4 4 5 5 4 2 1 2 4 6 7 8 9 9 10 10 10 11 14 15 16 16 15 15 16 18 18 19 23 26 29 33 36 38 39 39 40 40 40 41 41 41 41 41 42 42 42 42 41 41 40 39 40 43 44 46 49 47 40 37 39 40 38 38 35 30 27 25 24 25 26 27 27 28 28 27 26
8 8 9 9 7 5 5 5 6 7 6 6 5 4 4 4 3 2 2 3 5 7 8 9 10 11 14 16 18 18 19 20 20 21 22 23 26 30 33 36 37 39 40 41 42 43 44 44 43 43 42 42 43 43 42 41 41 41 41 41 41 43 44 46 46 42 38 38 40 39 37 37 33 29 26 25 23 23 25 26 27 28 29 29 28
11 8 5 4 4 6 7 7 7 8 8 8 8 7 7 7 6 5 4 3 2 1 1 3 5 7 9 11 13 15 17 19 20 21 23 25 27 29 31 32 32 33 34 35 36 37 37 38 37 37 37 37 38 41 42 41 40 40 40 41 42 42 42 41 39 36 35 37 38 38 38 36 32 29 28 26 23 23 26 27 29 30 30 30 29
14 10 8 7 7 8 9 9 8 8 8 8 8 8 8 9 9 8 8 7 6 6 5 4 3 3 3 3 4 6 8 11 14 16 18 20 23 24 26 26 27 28 29 30 32 33 33 34 35 36 37 38 39 41 42 41 39 38 37 37 36 35 33 30 29 29 32 34 36 38 38 36 33 32 31 27 25 27 28 29 30 32 32 31 30
15 13 12 12 9 7 6 7 8 9 8 6 5 6 7 7 7 7 7 7 7 7 6 5 4 4 5 5 4 3 3 2 3 5 7 9 12 14 16 17 19 20 21 23 24 25 26 29 31 34 36 37 38 38 37 36 35 34 32 29 26 24 22 21 23 26 28 31 36 39 38 36 35 34 31 27 27 28 28 28 30 31 32 32 32
17 15 13 12 10 9 8 7 5 6 7 8 8 9 8 7 5 5 5 6 6 6 6 5 4 2 2 3 3 4 5 5 5 4 3 1 1 2 4 5 6 7 9 10 11 11 11 12 14 17 20 23 24 25 24 24 24 23 21 19 18 16 15 16 20 23 25 29 32 34 33 32 32 32 29 28 28 28 27 27 28 29 31 33 33
17 16 15 12 11 11 10 9 7 7 8 9 10 10 9 7 6 5 7 10 10 8 7 6 5 3 2 3 4 4 5 4 4 4 4 4 3 2 2 2 2 2 2 3 4 5 6 6 7 7 7 7 9 10 11 11 11 12 13 13 14 14 15 15 17 20 22 24 26 27 28 28 28 29 29 29 28 27 25 25 26 27 30 32 33
14 15 15 14 11 8 6 6 7 7 6 6 7 8 8 7 6 5 7 9 10 9 7 6 6 4 3 2 1 2 2 1 1 1 1 2 2 2 2 2 2 3 4 4 5 6 7 7 7 7 7 5 3 4 6 8 9 11 12 13 14 15 16 16 17 19 21 22 24 25 25 25 25 27 28 28 27 25 24 24 25 26 29 31 34
12 12 12 13 11 8 5 4 5 4 5 7 6 5 6 6 7 7 7 8 8 7 6 7 7 7 6 6 5 4 3 3 3 3 4 3 3 4 4 5 6 6 7 7 7 6 6 6 6 6 5 5 4 3 4 6 8 9 11 12 13 14 14 13 14 15 16 18 19 21 21 21 21 22 23 23 23 23 23 23 23 24 26 29 31
11 11 11 11 11 10 8 7 5 2 1 2 3 3 3 3 5 7 9 10 9 8 8 9 9 9 9 9 9 9 8 7 6 6 6 6 6 8 9 10 11 12 12 11 10 8 6 5 5 5 4 3 3 3 3 4 6 7 8 10 11 11 12 11 11 11 11 12 14 15 16 17 17 17 18 18 19 20 20 20 20 21 23 24 26
11 10 10 10 10 10 10 9 7 4 4 5 5 5 5 6 7 9 10 10 9 9 10 10 9 9 9 9 8 9 10 10 10 10 8 8 9 10 11 12 13 13 14 13 11 8 6 5 4 4 5 5 5 5 5 5 7 8 9 10 11 11 12 11 11 11 11 12 14 15 16 16 17 17 18 19 20 20 20 21 20 20 21 21 23
Wind_Direction
226 225 225 227 227 225 225 225 226 227 228 229 232 231 231 235 229 221 224 229 226 224 222 219 221 227 237 244 246 247 248 250 250 250 255 259 264 268 266 266 266 261 258 257 258 261 263 265 267 268 270 271 272 271 269 269 265 261 259 258 257 258 260 265 271 274 275 276 281 285 289 294 298 300 302 300 297 294 295 299 305 309 311 310 310
225 227 228 230 232 229 228 228 228 229 229 231 232 230 234 238 227 218 224 229 227 226 225 222 222 226 234 242 246 250 250 251 252 252 255 258 261 266 267 268 268 264 259 257 257 260 261 263 264 265 268 270 273 273 271 269 267 264 262 260 259 259 262 266 270 273 275 277 280 283 287 290 293 295 297 296 293 292 295 300 304 308 309 307 306
231 235 236 235 236 232 230 229 229 229 228 229 228 226 231 236 227 220 223 227 228 230 227 224 223 228 234 239 244 249 251 252 253 252 256 259 260 263 265 268 269 267 263 259 257 258 259 262 262 262 266 269 272 273 272 268 266 265 263 262 261 261 262 265 269 273 276 278 280 283 285 286 288 292 293 293 292 292 295 298 302 306 306 303 304
235 237 238 239 238 235 232 229 227 227 228 228 227 225 226 232 231 224 221 225 230 230 229 226 223 226 233 238 241 245 249 252 253 252 255 259 260 261 262 265 267 269 267 261 257 259 261 263 262 260 262 267 270 271 271 268 265 264 263 262 261 261 262 263 267 272 275 278 282 283 282 282 285 290 292 292 292 292 293 296 299 302 302 301 301
234 235 236 237 237 236 235 230 227 227 228 229 228 224 222 226 230 224 220 226 231 230 231 229 224 226 233 237 241 244 247 250 252 253 255 258 260 260 260 262 264 267 268 264 260 259 261 264 263 262 262 265 269 271 270 269 266 264 262 262 261 260 261 262 265 270 274 278 281 281 280 281 284 288 290 291 291 290 292 294 296 298 299 299 298
226 228 231 233 235 238 237 232 228 228 230 231 228 223 220 221 223 219 220 230 234 232 233 232 229 231 234 236 240 243 247 249 251 253 255 256 259 259 258 259 261 264 266 266 263 259 259 261 262 262 264 265 266 268 269 269 267 266 264 262 260 258 258 261 265 269 273 276 278 278 279 281 283 286 288 289 288 288 290 292 293 294 295 296 294
225 219 221 227 231 236 238 233 228 229 230 228 222 217 218 219 220 218 222 231 236 236 238 238 237 237 237 237 238 241 246 248 249 252 256 257 258 259 258 258 259 261 263 265 265 261 257 256 259 263 265 265 264 263 266 268 268 267 265 261 260 259 258 260 264 268 272 275 276 277 278 280 282 285 285 284 284 286 288 288 289 292 294 294 291
233 218 215 223 230 235 238 235 231 228 225 221 215 213 216 220 222 222 225 231 235 237 240 242 242 241 238 238 239 241 245 247 248 253 258 259 258 258 259 259 258 259 261 263 264 262 259 255 255 261 264 264 263 261 261 264 267 267 265 262 261 262 262 262 263 265 269 273 274 274 275 278 282 284 283 282 283 285 284 285 290 293 294 294 292
228 221 219 225 229 235 239 239 235 227 221 219 217 217 220 223 224 224 226 231 234 237 239 241 243 242 238 238 240 242 246 249 251 255 257 257 256 257 258 259 258 258 258 260 262 262 260 256 254 257 261 263 262 261 260 261 265 267 266 263 262 263 263 263 263 264 267 270 272 272 273 277 281 282 283 283 283 282 283 287 291 291 292 293 292
218 218 221 227 231 234 239 243 239 228 222 221 221 221 223 224 225 225 228 232 234 237 239 240 242 242 240 239 238 241 246 250 254 255 254 252 253 254 256 257 257 257 257 257 259 261 261 259 254 253 256 259 261 262 262 262 263 265 266 264 262 262 263 262 263 265 267 270 271 272 273 277 279 281 282 282 281 281 284 287 287 286 288 291 289
222 219 219 227 234 236 237 240 238 230 225 224 224 225 225 226 226 227 230 232 234 236 237 239 241 241 239 237 236 240 245 248 252 252 248 246 248 251 254 256 257 257 256 256 256 258 260 259 255 251 252 256 260 262 263 263 263 264 265 265 265 264 263 263 265 267 269 271 271 271 273 277 278 278 279 280 280 280 281 282 282 283 287 289 286
232 228 224 225 230 233 233 233 231 227 226 227 226 226 227 227 227 228 229 231 233 235 237 237 236 234 234 234 235 241 246 247 249 248 243 241 244 249 253 256 258 257 256 256 255 255 257 258 256 252 251 254 257 260 263 264 264 264 264 266 266 267 267 267 268 269 271 272 271 271 274 277 276 276 277 279 277 275 274 277 279 281 285 288 287
238 238 234 228 226 228 228 229 228 225 224 225 226 226 227 227 227 226 227 228 231 234 234 231 228 228 231 235 239 244 246 247 248 245 239 237 241 247 252 256 260 261 259 257 256 253 254 256 256 254 252 252 254 257 261 264 265 264 264 265 266 268 270 270 270 271 272 273 273 274 276 277 277 277 277 275 272 269 270 272 274 278 283 286 286
229 234 236 233 230 228 224 224 227 226 226 225 225 225 225 226 227 227 227 226 228 231 230 226 226 230 234 238 243 246 244 245 246 242 237 237 241 246 250 256 263 266 264 260 257 253 252 253 256 256 254 253 253 254 258 262 264 265 264 265 267 269 271 272 272 273 274 275 276 277 277 277 279 279 276 272 270 270 272 272 271 275 279 282 281
225 229 232 234 236 235 230 226 225 226 226 225 226 226 226 226 226 226 226 225 225 228 229 228 229 234 238 240 243 245 243 242 244 241 236 237 242 246 250 255 262 269 270 266 260 256 252 251 254 256 255 255 254 254 255 258 262 265 266 267 268 269 270 272 273 275 277 277 278 278 279 279 280 281 279 277 276 277 279 277 274 273 275 276 277
229 228 229 232 236 238 238 236 234 233 232 229 227 227 227 227 227 225 223 224 225 227 229 232 233 236 239 241 242 243 243 242 243 243 241 241 244 248 252 256 262 269 274 273 267 260 254 251 252 254 256 257 256 254 254 255 259 263 266 269 270 270 272 273 274 276 277 279 280 280 281 281 281 283 284 284 284 283 281 280 279 277 273 273 273
233 234 232 231 232 235 237 239 238 240 243 243 240 236 231 227 227 227 225 224 226 228 230 233 237 238 239 240 241 242 244 245 246 247 250 251 252 254 254 257 261 267 272 275 273 266 258 252 251 252 254 256 257 256 255 255 258 261 264 268 270 272 274 274 274 276 277 278 280 281 282 282 281 282 282 282 283 282 280 282 284 282 276 272 271
235 239 241 238 234 234 237 239 240 243 247 249 250 251 246 236 228 227 228 228 228 229 231 234 238 241 240 239 240 242 244 247 249 251 255 258 260 260 260 259 260 263 268 273 275 271 263 255 252 252 254 255 257 258 257 256 257 260 263 266 269 272 275 276 276 276 276 277 278 280 281 282 281 280 281 282 283 280 279 282 284 282 277 273 270
235 241 246 246 243 239 239 241 243 245 249 250 250 251 253 249 238 229 228 231 231 230 232 235 238 241 242 241 241 243 246 248 250 253 256 258 260 263 264 263 262 262 264 269 273 274 269 261 255 254 253 254 256 259 260 260 258 259 261 264 266 269 274 276 277 276 275 275 276 278 280 281 281 282 283 286 285 280 275 276 278 278 276 271 269
239 242 246 248 246 243 242 244 245 246 248 251 249 246 247 251 248 239 230 228 231 231 231 234 237 240 243 244 244 246 248 250 252 253 255 257 260 263 264 265 266 265 265 267 271 274 274 268 261 256 254 253 255 259 262 263 261 260 260 262 265 267 268 270 272 275 275 276 278 279 279 281 284 285 285 286 283 277 273 273 275 276 274 270 270
243 245 246 246 244 242 242 243 246 248 249 249 249 246 244 244 249 250 241 230 229 233 232 233 236 240 243 246 247 248 250 253 253 254 255 256 258 261 263 265 267 268 267 267 268 271 274 275 269 262 258 256 257 259 262 264 264 262 260 260 262 264 263 264 267 271 275 276 277 278 279 281 283 285 286 285 279 272 272 274 275 273 271 270 271
242 243 243 243 242 241 241 242 244 247 249 249 248 248 247 244 244 249 250 241 233 233 235 235 236 239 242 245 247 248 250 252 253 253 254 254 255 259 262 264 265 267 268 268 267 269 273 276 272 263 259 259 259 260 262 264 265 264 263 262 261 262 263 265 267 269 273 275 275 276 278 280 281 282 283 279 271 268 271 273 273 272 270 270 272
238 237 237 240 240 239 240 242 243 245 247 248 248 249 250 248 244 244 248 247 239 234 235 237 237 238 240 242 244 246 247 248 250 251 252 251 252 256 260 261 262 264 266 268 268 269 272 274 271 263 258 257 259 261 264 266 268 268 266 265 264 265 266 268 269 271 273 274 274 274 275 276 277 280 279 271 263 264 266 268 269 270 270 271 273
235 234 234 236 237 237 239 241 243 244 246 247 248 248 249 250 247 243 242 242 241 237 235 237 239 239 239 240 241 243 244 245 246 247 247 248 249 252 256 258 259 260 263 266 268 269 270 273 274 268 260 257 259 262 265 267 270 271 270 268 268 270 271 273 275 275 275 273 272 272 273 274 276 275 268 259 256 258 261 264 268 270 271 272 273
233 234 234 234 234 236 240 242 242 243 245 247 247 247 247 249 249 246 244 242 244 245 242 240 242 244 243 242 242 242 242 243 244 245 247 247 248 250 253 256 257 258 261 263 265 268 270 272 273 269 260 258 261 262 264 266 269 273 273 267 265 270 274 277 278 278 276 274 270 269 271 272 270 264 254 249 251 256 261 265 268 269 270 271 271
232 232 233 233 234 235 239 241 241 241 243 246 248 247 247 248 248 248 249 249 251 256 255 250 248 248 247 248 248 246 243 242 243 245 247 247 248 249 253 256 257 258 260 262 264 266 265 264 266 263 257 257 259 260 262 264 266 269 267 259 259 266 273 277 278 277 275 270 266 267 268 264 257 251 248 248 253 258 263 265 265 266 267 268 268
229 230 230 232 233 234 237 239 239 241 243 245 247 247 247 247 247 248 250 251 253 257 260 259 256 253 249 250 252 250 248 245 243 244 247 248 248 249 253 257 258 258 259 261 262 262 260 259 261 259 255 255 256 256 258 260 262 264 264 260 261 267 272 275 275 274 270 265 261 260 258 253 249 247 248 250 254 257 260 261 262 264 265 266 267
226 227 227 229 231 232 234 237 238 241 243 244 246 247 247 248 249 249 250 251 252 253 257 260 260 257 252 249 248 248 247 245 242 240 243 246 249 252 255 257 258 257 258 259 258 257 257 258 259 256 252 250 251 253 256 259 262 265 266 263 263 267 271 272 270 269 267 265 262 258 253 250 250 249 248 249 251 253 256 258 261 262 263 264 265
222 225 225 227 231 232 233 235 238 241 244 246 246 248 249 249 250 251 252 253 254 254 255 257 260 261 257 251 247 245 242 241 242 241 242 246 251 254 254 254 256 257 258 258 257 255 253 253 255 254 250 247 248 252 256 261 265 267 266 264 262 264 269 270 270 269 267 263 260 258 253 250 248 246 248 250 250 251 254 257 259 259 260 262 263
213 221 225 226 229 231 232 235 239 241 245 247 248 251 253 252 252 252 252 253 255 256 256 256 259 263 262 256 252 248 244 242 244 246 247 250 252 252 250 250 253 256 257 256 256 255 251 250 253 253 250 247 249 254 259 264 267 268 268 267 265 266 271 274 275 273 268 264 261 256 250 246 243 241 245 248 248 247 251 255 256 257 259 260 259
206 213 221 222 225 228 229 233 237 239 242 244 246 249 252 252 252 250 249 251 254 256 256 256 257 260 263 262 260 254 248 246 250 252 251 250 249 248 247 248 251 256 257 255 254 252 249 248 250 250 248 248 252 258 262 266 268 270 271 271 268 268 272 275 273 271 268 267 264 257 248 242 240 239 241 244 243 243 247 251 253 255 257 256 252
202 210 218 220 224 226 225 228 232 235 238 240 241 241 243 244 245 245 245 247 250 252 254 255 255 257 258 259 259 256 251 251 254 254 251 249 248 249 250 251 255 258 255 250 249 250 248 246 245 245 245 249 254 260 263 266 268 270 271 270 268 269 274 275 273 272 272 268 261 256 248 241 238 237 238 240 241 242 245 249 251 251 249 245 243
175 197 212 222 228 229 229 230 232 234 236 237 236 236 238 239 241 243 244 247 249 251 252 254 255 256 254 253 253 252 251 252 253 249 246 246 247 248 251 254 256 253 245 240 243 246 245 242 243 244 248 252 256 260 264 266 268 270 271 272 273 275 277 275 274 276 275 266 254 249 244 237 233 234 234 236 239 242 246 248 247 243 239 236 237
106 132 168 206 222 225 229 233 235 235 235 233 231 234 239 242 244 246 247 248 250 251 252 254 255 254 252 250 249 246 246 248 248 242 239 240 243 247 250 252 248 241 238 240 243 243 241 242 246 248 250 253 257 260 263 266 268 269 271 274 274 272 271 270 272 275 272 262 249 243 237 229 227 230 232 235 240 243 246 249 246 241 237 234 236
82 95 110 126 155 172 181 200 219 231 235 233 231 233 238 243 246 248 248 248 248 249 250 252 251 249 248 248 249 247 245 243 240 236 234 236 241 245 247 244 238 234 235 238 239 241 246 252 253 253 252 254 257 260 262 265 267 268 271 271 269 267 267 268 272 276 272 264 252 245 238 230 228 229 229 233 240 242 244 246 244 241 239 237 239
65 77 92 103 115 130 141 154 176 201 221 229 230 232 236 240 241 243 244 246 248 252 254 252 248 245 244 246 247 247 243 236 232 232 232 234 238 241 241 237 232 229 230 231 232 239 253 260 258 256 255 255 258 261 262 263 265 267 268 267 267 268 271 273 276 278 276 268 257 250 246 240 237 233 229 232 237 240 242 242 240 239 238 238 240
47 53 63 76 88 103 126 148 152 165 193 215 226 235 241 240 234 234 235 236 240 249 255 253 248 243 241 242 244 245 242 237 230 224 222 226 229 233 238 238 229 222 225 231 236 244 254 259 260 261 261 260 261 263 264 264 266 268 268 266 265 268 272 274 274 274 271 264 255 251 248 244 239 233 229 230 233 237 241 241 239 237 236 236 239
39 40 41 43 49 59 72 76 81 133 174 191 219 243 255 251 238 234 233 234 235 235 238 244 245 237 231 233 235 239 244 243 231 218 215 221 224 226 233 240 237 231 235 243 248 251 252 253 255 258 261 262 264 265 264 265 266 267 267 267 267 267 268 268 269 268 265 258 253 251 245 237 231 229 227 227 229 234 240 240 238 235 234 235 239
39 39 40 40 37 40 46 41 24 3 327 256 249 257 263 262 256 248 236 232 232 231 231 236 239 227 224 226 227 231 245 248 226 208 206 215 223 226 232 242 250 254 254 252 250 250 250 250 251 253 256 260 261 261 261 264 265 265 266 267 268 267 265 265 269 270 265 253 250 250 240 228 225 226 225 224 226 233 237 237 236 235 234 236 241
42 40 39 37 39 45 47 43 34 26 18 5 322 272 267 270 270 268 259 249 244 243 243 247 248 239 236 239 242 248 265 272 236 210 206 214 225 235 243 248 253 255 255 252 251 252 252 253 254 256 259 261 260 257 257 260 262 263 264 264 263 262 263 263 267 269 263 249 246 249 240 226 221 222 222 222 227 233 236 235 234 235 236 238 242
52 51 46 44 48 51 44 35 35 44 45 43 40 33 325 295 285 275 269 265 265 265 261 258 256 251 246 248 250 252 256 257 249 238 233 234 240 247 251 252 253 254 254 253 254 254 254 255 256 257 259 261 261 260 260 261 262 262 263 263 262 262 264 264 266 269 264 251 247 247 237 223 218 218 221 224 229 232 235 237 236 236 236 238 241
57 67 67 63 53 30 13 20 29 30 29 31 34 38 44 43 29 356 316 273 257 257 256 253 251 248 243 243 244 243 244 244 243 242 241 242 244 247 249 251 253 255 256 256 256 257 258 259 259 260 260 260 261 263 264 264 263 263 263 264 264 263 264 265 268 270 264 252 246 239 227 217 215 216 218 223 227 230 235 239 238 236 237 238 241
40 51 61 62 41 28 36 52 52 34 23 24 28 32 37 44 50 48 39 35 39 20 284 258 253 251 248 246 245 245 245 245 245 244 243 243 244 245 247 249 252 254 256 258 259 261 262 263 264 265 265 264 263 263 263 261 260 259 260 262 263 263 265 267 269 267 259 250 240 228 217 213 213 214 217 222 225 229 236 240 239 237 237 238 241
35 35 29 31 51 64 69 76 76 60 41 25 17 19 25 33 44 52 52 52 53 49 39 35 32 19 352 316 287 271 261 253 249 248 247 245 244 245 246 247 250 253 257 261 264 265 267 267 267 267 266 264 262 262 262 259 257 258 259 261 262 262 263 264 262 258 254 246 231 218 212 211 212 215 218 219 221 227 233 236 237 237 236 238 241
29 29 28 34 50 67 71 66 63 61 59 51 31 18 14 15 23 31 34 43 57 59 48 39 38 42 45 45 41 34 22 346 288 267 260 256 254 253 253 253 256 258 261 264 266 268 268 268 267 265 263 261 260 261 261 259 257 256 257 256 254 253 254 255 251 247 242 231 218 210 209 209 211 215 217 217 221 228 233 234 234 236 236 237 240
24 26 30 35 38 37 41 45 37 24 25 27 21 14 10 9 16 24 21 24 39 53 56 54 56 81 117 117 113 107 98 90 88 88 87 97 188 237 245 246 250 256 259 262 266 271 276 280 278 272 266 261 259 259 258 255 250 246 242 239 239 242 245 245 240 232 223 216 210 208 208 209 211 216 217 216 218 223 227 227 229 233 236 238 239
19 20 22 25 32 41 47 45 27 6 5 9 13 21 32 37 35 22 8 2 1 7 20 32 41 64 119 140 141 136 130 126 127 130 137 146 158 174 193 202 219 248 277 302 314 322 335 347 347 334 308 279 257 246 238 232 228 226 226 229 235 237 235 232 226 219 216 216 215 213 211 211 213 216 219 219 220 221 222 221 223 228 233 238 240
14 17 19 20 26 39 47 31 16 19 35 44 36 32 36 40 35 13 357 355 358 3 8 7 9 21 43 60 80 113 125 123 126 149 179 204 219 236 258 288 316 329 340 346 345 345 349 356 0 1 355 340 299 241 220 215 216 220 223 227 231 231 229 228 226 223 221 221 221 220 220 220 220 222 224 225 225 224 223 223 223 227 233 238 241
3 10 15 17 17 16 8 1 10 33 65 73 58 23 4 18 35 34 21 13 12 13 13 13 14 17 21 22 22 18 10 4 349 328 319 313 309 311 321 329 334 340 345 345 338 333 336 344 348 348 350 351 339 306 262 238 231 232 232 232 233 229 226 225 226 227 227 227 227 228 229 230 230 230 229 227 225 224 226 228 231 235 239 243 245
347 354 0 6 10 9 4 4 10 10 11 50 47 16 349 355 5 3 4 10 11 5 358 357 1 1 2 5 7 1 356 355 350 338 331 330 329 328 327 326 325 327 330 333 331 323 318 323 327 321 314 311 306 297 283 262 250 246 241 238 234 228 223 222 224 225 224 225 227 229 230 232 231 229 227 226 229 233 236 239 241 244 247 249 250
338 340 343 347 354 360 360 359 359 343 299 280 280 290 295 293 295 307 317 323 328 330 330 332 336 339 340 342 343 339 335 333 331 329 332 339 340 336 332 329 328 326 322 319 319 317 309 307 311 304 292 279 263 255 258 259 258 255 250 245 240 234 231 232 233 232 230 230 232 234 235 236 236 236 235 237 240 245 247 248 248 248 249 251 252
Height
3084 3087 3089 3091 3093 3095 3098 3101 3103 3106 3109 3111 3112 3115 3119 3122 3125 3128 3129 3131 3131 3131 3131 3132 3133 3136 3138 3141 3145 3147 3148 3149 3149 3150 3149 3150 3150 3149 3149 3148 3148 3148 3147 3147 3147 3146 3146 3146 3146 3146 3145 3145 3144 3144 3144 3144 3143 3143 3143 3143 3142 3142 3142 3141 3141 3141 3142 3142 3141 3141 3140 3139 3138 3138 3137 3136 3135 3133 3132 3130 3129 3127 3125 3124 3123
3081 3084 3086 3088 3090 3092 3095 3097 3100 3102 3103 3105 3107 3110 3113 3116 3120 3123 3125 3127 3129 3129 3129 3129 3130 3132 3135 3138 3141 3144 3145 3146 3147 3147 3147 3147 3147 3147 3146 3146 3145 3145 3145 3145 3145 3145 3144 3144 3144 3144 3143 3143 3143 3142 3142 3142 3141 3141 3141 3141 3141 3140 3140 3139 3138 3138 3139 3139 3139 3138 3138 3137 3136 3135 3134 3133 3132 3130 3129 3127 3126 3125 3123 3122 3121
3078 3080 3082 3084 3087 3089 3092 3094 3095 3097 3098 3100 3103 3106 3109 3111 3115 3118 3121 3124 3125 3126 3126 3127 3127 3129 3131 3134 3137 3140 3142 3143 3144 3144 3144 3144 3144 3144 3144 3143 3143 3143 3142 3142 3143 3142 3142 3142 3142 3142 3141 3141 3141 3140 3140 3140 3139 3139 3139 3139 3139 3138 3138 3137 3136 3135 3135 3136 3136 3136 3135 3134 3133 3132 3131 3130 3129 3128 3126 3125 3124 3123 3122 3120 3119
3074 3076 3078 3081 3083 3085 3088 3090 3091 3093 3094 3096 3098 3102 3105 3108 3110 3114 3117 3120 3121 3122 3123 3123 3124 3126 3128 3131 3134 3137 3139 3140 3141 3142 3142 3141 3141 3141 3141 3141 3140 3140 3140 3140 3140 3139 3139 3139 3140 3139 3139 3138 3138 3138 3138 3138 3137 3137 3137 3137 3137 3136 3136 3135 3134 3133 3133 3132 3132 3132 3132 3131 3131 3130 3128 3127 3126 3125 3124 3123 3122 3121 3120 3118 3117
3068 3072 3074 3077 3079 3081 3083 3086 3087 3088 3090 3092 3095 3098 3101 3104 3107 3110 3112 3115 3117 3119 3119 3120 3120 3122 3125 3128 3131 3133 3136 3137 3138 3139 3139 3139 3138 3138 3138 3138 3138 3138 3137 3137 3137 3136 3136 3136 3136 3136 3136 3136 3136 3136 3136 3135 3135 3135 3134 3134 3134 3134 3134 3133 3132 3131 3130 3129 3129 3129 3129 3129 3128 3127 3126 3124 3123 3122 3121 3120 3119 3119 3118 3117 3115
3061 3066 3070 3072 3075 3077 3079 3082 3083 3085 3087 3089 3092 3095 3097 3100 3103 3105 3108 3110 3113 3114 3115 3116 3117 3119 3122 3124 3127 3129 3131 3133 3134 3135 3136 3136 3135 3135 3135 3135 3135 3135 3135 3135 3134 3133 3133 3133 3133 3133 3133 3133 3134 3134 3133 3133 3132 3132 3132 3132 3132 3132 3131 3130 3129 3128 3128 3127 3126 3126 3126 3125 3124 3124 3123 3121 3120 3119 3118 3118 3117 3117 3116 3115 3114
3055 3058 3063 3068 3070 3072 3075 3078 3080 3082 3084 3085 3088 3091 3093 3096 3099 3100 3103 3106 3109 3110 3111 3112 3114 3116 3118 3120 3122 3125 3127 3128 3130 3131 3132 3132 3132 3132 3132 3132 3132 3132 3132 3132 3132 3131 3131 3131 3131 3130 3130 3131 3131 3131 3130 3130 3130 3129 3130 3130 3129 3129 3128 3128 3127 3126 3125 3124 3124 3123 3122 3122 3121 3120 3120 3119 3117 3117 3116 3115 3114 3114 3113 3112 3111
3054 3054 3057 3061 3065 3068 3070 3073 3076 3078 3081 3083 3085 3087 3090 3092 3094 3096 3099 3102 3104 3105 3107 3109 3110 3112 3114 3115 3118 3120 3122 3123 3125 3127 3127 3128 3128 3128 3129 3129 3129 3129 3129 3129 3129 3128 3128 3128 3128 3128 3128 3128 3128 3128 3128 3127 3127 3127 3127 3127 3126 3126 3125 3125 3124 3123 3123 3122 3121 3121 3119 3118 3117 3117 3116 3116 3115 3114 3113 3112 3112 3111 3109 3108 3107
3051 3052 3053 3056 3059 3063 3066 3069 3072 3074 3077 3079 3081 3083 3085 3087 3089 3092 3094 3097 3099 3101 3103 3104 3105 3107 3109 3111 3113 3115 3117 3119 3121 3122 3123 3124 3124 3125 3125 3125 3126 3126 3126 3126 3126 3126 3125 3125 3125 3125 3125 3125 3125 3125 3125 3125 3125 3125 3125 3124 3124 3123 3123 3122 3121 3121 3120 3120 3119 3118 3117 3116 3115 3114 3113 3112 3112 3111 3110 3109 3108 3108 3106 3105 3103
3046 3047 3048 3052 3055 3058 3061 3064 3067 3069 3072 3075 3077 3079 3081 3083 3085 3087 3089 3092 3095 3096 3098 3099 3100 3102 3104 3106 3108 3110 3113 3114 3116 3118 3119 3120 3120 3121 3121 3122 3122 3123 3123 3123 3123 3123 3122 3122 3122 3122 3122 3122 3121 3121 3122 3122 3122 3122 3122 3122 3121 3120 3120 3119 3119 3118 3118 3117 3117 3116 3114 3113 3113 3112 3110 3109 3108 3107 3107 3106 3105 3104 3103 3102 3101
3043 3042 3042 3046 3051 3053 3056 3059 3062 3064 3066 3069 3072 3074 3076 3078 3080 3082 3084 3087 3089 3091 3092 3093 3095 3097 3099 3102 3103 3106 3108 3110 3112 3113 3114 3115 3116 3117 3117 3118 3118 3119 3119 3119 3119 3120 3120 3119 3119 3119 3119 3118 3118 3118 3119 3119 3119 3119 3119 3119 3118 3117 3117 3116 3116 3115 3115 3115 3114 3113 3112 3111 3111 3110 3108 3107 3105 3104 3104 3103 3102 3101 3100 3099 3098
3039 3037 3035 3038 3044 3048 3050 3053 3056 3058 3061 3063 3066 3068 3070 3072 3074 3076 3079 3081 3084 3085 3087 3088 3090 3092 3095 3097 3099 3101 3104 3106 3107 3107 3109 3111 3112 3112 3113 3113 3114 3114 3115 3115 3116 3116 3116 3116 3116 3116 3115 3115 3115 3115 3115 3115 3115 3115 3115 3115 3115 3114 3114 3113 3113 3112 3112 3111 3111 3110 3110 3109 3108 3107 3106 3104 3103 3101 3101 3100 3099 3098 3096 3095 3095
3034 3032 3030 3031 3035 3040 3044 3047 3050 3052 3055 3057 3060 3063 3064 3066 3068 3070 3073 3076 3079 3080 3082 3084 3086 3088 3090 3092 3094 3097 3100 3101 3102 3103 3105 3107 3108 3108 3109 3109 3109 3110 3111 3111 3112 3112 3112 3112 3112 3112 3112 3112 3112 3112 3112 3112 3112 3112 3112 3112 3111 3111 3111 3110 3110 3109 3109 3108 3107 3107 3108 3107 3105 3105 3104 3102 3099 3098 3097 3097 3096 3094 3093 3092 3091
3030 3031 3031 3030 3031 3033 3036 3039 3042 3046 3050 3052 3054 3056 3058 3060 3062 3065 3068 3071 3073 3074 3077 3079 3081 3083 3085 3088 3091 3093 3095 3097 3098 3099 3101 3103 3104 3104 3105 3105 3105 3105 3106 3107 3107 3107 3108 3108 3108 3108 3108 3108 3108 3108 3108 3108 3108 3108 3108 3108 3108 3107 3107 3106 3106 3106 3105 3105 3104 3104 3105 3103 3102 3102 3100 3098 3096 3095 3095 3093 3092 3091 3090 3089 3089
3026 3028 3029 3030 3029 3028 3029 3030 3033 3037 3041 3045 3048 3050 3052 3054 3057 3060 3062 3065 3067 3070 3072 3074 3076 3079 3081 3084 3087 3089 3091 3093 3094 3095 3097 3099 3100 3100 3100 3101 3101 3101 3102 3102 3103 3103 3103 3103 3103 3103 3104 3104 3104 3104 3104 3104 3104 3104 3103 3104 3104 3103 3103 3103 3102 3102 3102 3102 3101 3101 3101 3100 3099 3098 3097 3095 3093 3093 3093 3091 3089 3088 3088 3087 3086
3022 3023 3025 3027 3027 3026 3026 3028 3030 3031 3033 3035 3038 3042 3046 3049 3052 3054 3057 3059 3062 3064 3067 3069 3072 3074 3077 3079 3082 3084 3087 3089 3090 3092 3094 3095 3095 3096 3096 3096 3097 3097 3097 3098 3098 3099 3099 3099 3099 3099 3099 3100 3100 3100 3100 3100 3100 3099 3099 3100 3100 3099 3099 3099 3098 3098 3099 3099 3098 3098 3097 3097 3096 3095 3093 3092 3090 3090 3090 3088 3086 3085 3085 3084 3084
3018 3019 3021 3022 3023 3023 3024 3026 3028 3030 3031 3031 3032 3035 3038 3042 3047 3050 3052 3054 3056 3059 3061 3064 3067 3070 3072 3074 3076 3079 3082 3085 3086 3088 3090 3091 3091 3091 3091 3092 3092 3093 3093 3093 3094 3094 3094 3094 3095 3095 3095 3096 3096 3096 3096 3096 3096 3095 3095 3096 3095 3095 3095 3095 3095 3095 3095 3095 3095 3094 3094 3093 3092 3091 3090 3088 3087 3087 3086 3085 3084 3083 3082 3082 3082
3013 3015 3016 3018 3019 3019 3019 3021 3023 3025 3027 3030 3031 3032 3032 3034 3038 3043 3047 3049 3051 3054 3057 3059 3062 3065 3066 3068 3071 3074 3077 3080 3082 3083 3085 3086 3087 3087 3087 3087 3087 3088 3089 3088 3089 3089 3090 3090 3090 3091 3091 3092 3092 3092 3092 3092 3092 3091 3092 3091 3091 3091 3091 3091 3091 3091 3091 3091 3091 3090 3089 3089 3088 3087 3086 3084 3083 3083 3082 3082 3081 3080 3079 3079 3079
3007 3009 3011 3012 3014 3014 3015 3016 3019 3020 3022 3024 3027 3029 3030 3030 3032 3034 3039 3044 3047 3049 3052 3054 3056 3058 3061 3063 3066 3069 3072 3074 3077 3078 3080 3082 3082 3083 3083 3083 3083 3083 3084 3084 3084 3084 3085 3086 3086 3086 3087 3088 3088 3088 3088 3088 3088 3088 3087 3087 3087 3087 3088 3088 3088 3087 3087 3087 3086 3086 3085 3084 3084 3083 3082 3081 3080 3079 3079 3079 3078 3077 3077 3077 3076
3002 3003 3004 3006 3008 3010 3011 3012 3013 3015 3017 3019 3022 3023 3026 3029 3030 3028 3030 3036 3041 3043 3045 3047 3050 3052 3055 3058 3060 3063 3066 3069 3071 3073 3075 3076 3077 3078 3078 3078 3078 3079 3078 3079 3079 3079 3080 3081 3082 3082 3082 3083 3084 3084 3084 3084 3083 3084 3083 3082 3083 3084 3084 3084 3083 3083 3082 3082 3082 3081 3080 3080 3079 3079 3078 3077 3076 3076 3076 3075 3075 3074 3074 3073 3072
2996 2996 2997 2999 3001 3004 3006 3008 3009 3010 3012 3015 3017 3019 3021 3024 3027 3027 3025 3027 3033 3037 3039 3041 3044 3046 3048 3051 3053 3056 3060 3063 3065 3067 3069 3071 3072 3072 3072 3073 3074 3074 3073 3074 3074 3074 3075 3076 3078 3078 3079 3080 3080 3080 3080 3080 3079 3079 3078 3079 3079 3079 3079 3078 3078 3078 3078 3077 3077 3076 3076 3075 3075 3075 3074 3073 3073 3072 3072 3072 3071 3071 3070 3070 3069
2988 2989 2991 2992 2995 2998 3000 3003 3005 3006 3008 3010 3012 3014 3017 3020 3023 3025 3023 3021 3023 3028 3032 3035 3037 3040 3042 3044 3046 3050 3053 3057 3059 3061 3063 3065 3066 3066 3067 3068 3069 3069 3068 3069 3070 3069 3070 3072 3073 3074 3075 3075 3076 3076 3076 3076 3075 3074 3074 3074 3074 3074 3074 3074 3074 3073 3073 3073 3072 3072 3072 3071 3071 3071 3070 3070 3069 3069 3069 3068 3067 3067 3066 3066 3065
2980 2982 2984 2986 2988 2991 2994 2997 3000 3001 3003 3006 3008 3010 3013 3015 3017 3019 3020 3018 3017 3019 3024 3028 3031 3033 3036 3038 3040 3043 3047 3050 3053 3055 3057 3058 3059 3060 3061 3062 3063 3063 3063 3064 3065 3065 3065 3067 3068 3069 3069 3070 3071 3071 3071 3071 3070 3070 3070 3070 3069 3069 3070 3070 3069 3069 3069 3068 3067 3067 3067 3067 3067 3066 3066 3066 3066 3065 3065 3064 3063 3063 3062 3062 3062
2972 2974 2977 2979 2982 2985 2988 2992 2994 2997 2998 3000 3002 3004 3007 3009 3011 3012 3014 3014 3011 3011 3016 3022 3025 3027 3030 3032 3034 3037 3040 3044 3046 3049 3051 3052 3053 3054 3055 3055 3056 3058 3058 3059 3060 3060 3061 3062 3063 3064 3064 3065 3065 3066 3066 3066 3066 3065 3065 3065 3064 3064 3064 3065 3065 3064 3063 3062 3062 3062 3062 3062 3062 3063 3063 3062 3062 3061 3060 3060 3060 3059 3059 3059 3059
2964 2967 2970 2973 2976 2980 2983 2986 2989 2991 2993 2994 2996 2998 3000 3002 3005 3007 3010 3011 3010 3009 3011 3015 3019 3022 3025 3027 3029 3031 3035 3038 3040 3043 3044 3045 3046 3048 3048 3048 3050 3051 3053 3054 3055 3055 3056 3058 3058 3059 3059 3060 3060 3061 3061 3061 3061 3061 3061 3060 3060 3059 3059 3060 3060 3058 3057 3057 3057 3057 3058 3058 3058 3058 3058 3057 3056 3056 3056 3056 3056 3056 3056 3056 3056
2957 2960 2964 2967 2971 2974 2977 2980 2983 2986 2988 2989 2990 2992 2994 2996 2999 3003 3006 3008 3010 3009 3010 3013 3015 3016 3018 3021 3024 3026 3029 3031 3034 3036 3038 3039 3040 3041 3041 3041 3043 3045 3047 3048 3049 3050 3050 3052 3053 3054 3054 3055 3055 3055 3055 3056 3057 3056 3055 3055 3055 3054 3055 3055 3054 3053 3053 3052 3053 3053 3054 3054 3053 3052 3052 3052 3052 3052 3053 3053 3053 3053 3053 3053 3052
2950 2954 2957 2962 2965 2968 2971 2974 2978 2980 2983 2984 2985 2987 2989 2991 2994 2997 3000 3003 3005 3006 3008 3010 3012 3012 3013 3015 3017 3019 3023 3025 3027 3029 3031 3033 3034 3034 3035 3035 3036 3038 3040 3042 3043 3044 3044 3046 3047 3048 3049 3049 3049 3049 3050 3050 3051 3050 3049 3049 3049 3049 3049 3050 3049 3048 3048 3048 3048 3049 3049 3048 3047 3047 3047 3048 3048 3049 3049 3049 3049 3049 3050 3049 3049
2944 2948 2952 2956 2959 2962 2965 2969 2972 2975 2977 2979 2981 2983 2984 2986 2989 2991 2994 2997 3000 3002 3002 3004 3006 3008 3010 3011 3011 3012 3015 3017 3020 3023 3025 3026 3027 3028 3029 3029 3030 3032 3034 3035 3036 3038 3039 3040 3042 3043 3043 3043 3043 3043 3044 3045 3045 3045 3044 3044 3043 3043 3044 3044 3044 3044 3044 3044 3044 3044 3044 3042 3042 3042 3043 3044 3045 3045 3045 3045 3045 3046 3045 3045 3045
2936 2942 2947 2951 2954 2957 2960 2964 2967 2970 2972 2974 2976 2977 2979 2981 2984 2986 2989 2991 2993 2996 2997 2998 2999 3002 3004 3005 3005 3004 3005 3009 3014 3018 3019 3019 3020 3021 3022 3022 3024 3026 3027 3028 3029 3032 3034 3035 3037 3038 3038 3038 3038 3038 3039 3039 3039 3039 3039 3039 3038 3039 3038 3038 3038 3040 3040 3039 3039 3039 3038 3037 3037 3038 3038 3040 3041 3041 3041 3041 3042 3041 3041 3041 3042
2930 2937 2942 2946 2950 2954 2957 2960 2963 2965 2968 2970 2971 2973 2975 2977 2979 2980 2982 2984 2986 2988 2990 2992 2994 2995 2996 2996 2997 2997 2998 3002 3007 3010 3011 3011 3012 3013 3014 3016 3017 3019 3020 3021 3022 3025 3028 3030 3032 3033 3033 3033 3033 3034 3034 3034 3034 3034 3034 3033 3033 3033 3033 3032 3034 3035 3035 3033 3033 3033 3033 3032 3033 3033 3033 3035 3036 3036 3037 3038 3037 3037 3037 3038 3039
2925 2933 2939 2943 2947 2950 2953 2956 2958 2961 2963 2965 2967 2968 2970 2971 2972 2974 2976 2978 2979 2980 2982 2984 2986 2988 2988 2988 2989 2990 2992 2996 3000 3002 3003 3004 3005 3006 3008 3009 3010 3011 3013 3014 3016 3019 3022 3024 3025 3026 3027 3027 3028 3029 3029 3029 3029 3029 3029 3028 3027 3028 3028 3028 3028 3028 3028 3028 3028 3029 3028 3028 3029 3029 3030 3031 3032 3032 3033 3033 3033 3033 3034 3035 3035
2925 2932 2938 2941 2944 2946 2949 2951 2954 2956 2958 2960 2961 2962 2963 2964 2965 2967 2968 2970 2972 2973 2974 2976 2979 2980 2980 2980 2982 2984 2987 2990 2994 2996 2997 2998 2999 3001 3002 3002 3003 3004 3006 3008 3010 3013 3016 3017 3018 3020 3021 3022 3023 3024 3024 3023 3024 3023 3023 3022 3022 3023 3024 3023 3022 3022 3023 3023 3023 3023 3023 3024 3024 3025 3026 3027 3028 3029 3029 3029 3030 3030 3031 3031 3032
2930 2935 2939 2942 2943 2945 2947 2949 2950 2951 2953 2954 2955 2956 2957 2958 2959 2960 2962 2964 2966 2967 2969 2970 2972 2973 2973 2973 2975 2978 2980 2982 2986 2989 2992 2993 2995 2995 2995 2996 2998 2999 3000 3002 3004 3007 3009 3010 3012 3014 3016 3017 3018 3018 3018 3018 3018 3017 3017 3016 3016 3018 3018 3018 3017 3017 3017 3017 3016 3017 3017 3018 3019 3020 3021 3023 3024 3025 3025 3025 3026 3027 3027 3028 3029
2935 2938 2940 2942 2943 2944 2945 2947 2947 2948 2949 2949 2950 2952 2953 2953 2954 2956 2957 2959 2961 2962 2963 2964 2965 2966 2966 2967 2969 2971 2974 2976 2979 2981 2984 2986 2987 2988 2989 2991 2993 2995 2996 2998 2999 3001 3003 3005 3007 3009 3010 3011 3012 3012 3012 3012 3012 3011 3011 3011 3011 3012 3013 3012 3012 3012 3011 3010 3010 3009 3009 3010 3011 3014 3016 3018 3020 3021 3021 3021 3022 3022 3023 3024 3025
2938 2940 2942 2943 2943 2943 2943 2944 2945 2946 2946 2947 2948 2949 2949 2950 2950 2951 2952 2953 2954 2955 2956 2957 2958 2959 2960 2961 2964 2966 2968 2971 2973 2974 2976 2979 2981 2983 2984 2986 2987 2989 2991 2993 2995 2996 2998 3001 3002 3004 3005 3005 3006 3006 3006 3006 3006 3006 3006 3006 3005 3006 3006 3006 3006 3006 3005 3004 3005 3005 3004 3005 3007 3008 3010 3013 3015 3017 3017 3017 3017 3018 3019 3020 3020
2942 2942 2943 2943 2944 2943 2944 2944 2944 2944 2945 2945 2946 2946 2947 2947 2947 2948 2948 2948 2949 2949 2950 2951 2953 2953 2954 2957 2959 2961 2962 2965 2967 2968 2971 2974 2977 2978 2979 2980 2982 2984 2986 2988 2990 2992 2994 2995 2996 2997 2998 2999 2999 3000 3000 3000 3000 3000 3000 3000 3000 3000 3000 3001 3001 3001 3000 2999 3000 3001 3001 3003 3004 3005 3005 3007 3010 3012 3013 3014 3013 3014 3014 3015 3016
2944 2944 2944 2945 2945 2944 2944 2944 2943 2943 2943 2944 2944 2945 2945 2945 2945 2945 2945 2946 2946 2946 2947 2947 2948 2949 2950 2953 2955 2957 2958 2959 2961 2964 2967 2970 2973 2974 2974 2974 2977 2980 2982 2984 2986 2987 2988 2989 2990 2991 2991 2992 2993 2994 2995 2995 2995 2995 2994 2995 2995 2995 2995 2996 2996 2996 2995 2995 2995 2995 2996 2999 3000 3000 3000 3002 3004 3007 3009 3009 3009 3010 3010 3011 3012
2946 2946 2945 2945 2945 2945 2945 2944 2944 2943 2943 2943 2943 2944 2944 2944 2944 2944 2944 2945 2945 2945 2945 2945 2945 2946 2948 2950 2952 2954 2954 2955 2956 2959 2962 2965 2967 2969 2969 2970 2972 2975 2978 2980 2981 2982 2982 2983 2984 2985 2985 2986 2987 2988 2989 2989 2989 2989 2989 2989 2989 2989 2990 2990 2989 2989 2989 2989 2989 2990 2991 2992 2993 2995 2996 2997 2999 3002 3004 3004 3005 3006 3006 3007 3008
2948 2947 2947 2946 2946 2946 2945 2945 2944 2944 2944 2944 2943 2944 2944 2944 2944 2944 2944 2944 2944 2944 2944 2944 2944 2945 2947 2948 2949 2950 2951 2951 2951 2953 2956 2960 2963 2965 2967 2968 2969 2971 2973 2974 2975 2975 2976 2977 2978 2979 2980 2981 2982 2983 2983 2983 2984 2984 2984 2984 2984 2984 2984 2984 2983 2982 2983 2983 2984 2985 2986 2986 2988 2990 2991 2992 2994 2997 2998 3000 3001 3001 3002 3004 3005
2950 2949 2948 2948 2948 2947 2946 2946 2945 2945 2945 2944 2944 2943 2944 2943 2943 2943 2943 2943 2943 2943 2943 2943 2943 2944 2945 2946 2947 2948 2949 2949 2951 2952 2954 2957 2960 2962 2964 2966 2967 2967 2968 2969 2969 2970 2971 2971 2972 2973 2974 2975 2976 2977 2978 2978 2979 2979 2979 2979 2978 2978 2978 2978 2977 2977 2978 2978 2978 2979 2981 2982 2983 2985 2987 2989 2990 2992 2994 2995 2996 2997 2998 2999 3001
2951 2950 2950 2950 2949 2949 2948 2948 2947 2946 2946 2945 2944 2944 2944 2944 2943 2943 2943 2942 2942 2942 2942 2942 2942 2943 2944 2944 2945 2946 2947 2949 2951 2952 2954 2955 2957 2959 2961 2962 2963 2963 2963 2963 2964 2964 2965 2965 2966 2967 2968 2969 2970 2970 2971 2972 2972 2973 2973 2973 2972 2972 2971 2971 2971 2971 2972 2973 2973 2974 2977 2979 2980 2981 2984 2985 2987 2988 2989 2990 2992 2993 2994 2995 2996
2952 2952 2952 2951 2951 2950 2950 2949 2949 2948 2947 2946 2946 2945 2945 2944 2944 2944 2943 2943 2943 2942 2942 2942 2942 2942 2942 2943 2943 2944 2945 2946 2948 2949 2951 2952 2954 2955 2956 2957 2957 2958 2958 2958 2959 2959 2959 2960 2960 2960 2961 2962 2963 2964 2964 2965 2966 2967 2967 2966 2966 2965 2965 2964 2964 2965 2965 2966 2967 2969 2972 2974 2976 2978 2980 2981 2982 2983 2984 2986 2987 2988 2990 2991 2992
2953 2953 2952 2952 2952 2951 2951 2950 2950 2949 2949 2948 2947 2946 2946 2945 2945 2944 2944 2943 2943 2942 2942 2942 2942 2942 2942 2942 2943 2943 2943 2944 2945 2945 2946 2948 2949 2950 2951 2952 2953 2953 2954 2954 2954 2954 2954 2954 2955 2955 2956 2956 2957 2957 2958 2958 2959 2959 2959 2959 2959 2958 2958 2958 2958 2958 2958 2959 2961 2964 2967 2969 2971 2973 2975 2976 2978 2979 2981 2982 2983 2984 2985 2987 2988
2955 2954 2953 2953 2953 2953 2952 2952 2951 2951 2950 2949 2949 2948 2947 2946 2946 2945 2945 2944 2943 2943 2943 2942 2942 2942 2942 2942 2942 2942 2942 2942 2942 2943 2943 2944 2945 2946 2947 2948 2949 2949 2950 2950 2950 2950 2950 2950 2950 2950 2951 2951 2951 2951 2952 2952 2952 2952 2952 2952 2952 2951 2951 2951 2952 2953 2953 2954 2956 2959 2962 2964 2966 2969 2970 2972 2973 2975 2977 2978 2979 2980 2981 2982 2983
2956 2955 2954 2954 2954 2954 2953 2952 2952 2952 2951 2951 2950 2949 2949 2948 2947 2947 2946 2946 2945 2945 2944 2944 2943 2943 2943 2942 2942 2942 2941 2941 2941 2941 2941 2942 2943 2943 2944 2945 2946 2946 2947 2947 2947 2947 2947 2946 2946 2946 2945 2945 2945 2945 2946 2946 2946 2946 2946 2947 2946 2946 2947 2947 2948 2948 2949 2950 2952 2954 2956 2958 2961 2963 2965 2967 2969 2971 2973 2974 2975 2976 2977 2978 2979
2958 2957 2956 2955 2955 2954 2954 2954 2953 2952 2952 2951 2950 2950 2950 2949 2948 2948 2947 2947 2946 2946 2945 2945 2944 2944 2943 2943 2942 2942 2941 2941 2941 2941 2941 2942 2943 2943 2944 2944 2945 2945 2945 2945 2945 2945 2945 2944 2943 2942 2941 2940 2940 2940 2940 2941 2941 2942 2942 2943 2943 2944 2944 2944 2944 2945 2946 2948 2949 2951 2952 2954 2956 2958 2961 2963 2964 2966 2968 2969 2970 2971 2973 2974 2975
2959 2958 2957 2956 2955 2955 2955 2955 2954 2953 2952 2951 2951 2950 2950 2949 2949 2948 2947 2947 2946 2946 2945 2945 2944 2944 2943 2943 2942 2942 2941 2941 2941 2942 2942 2943 2943 2944 2944 2945 2945 2945 2945 2945 2945 2945 2944 2943 2942 2941 2940 2939 2938 2937 2937 2938 2939 2939 2940 2941 2942 2942 2942 2943 2943 2944 2944 2946 2947 2948 2949 2950 2952 2954 2956 2958 2960 2961 2963 2965 2966 2967 2969 2970 2971
2960 2959 2958 2957 2957 2956 2956 2955 2955 2954 2953 2952 2952 2951 2950 2949 2949 2948 2947 2947 2947 2946 2945 2945 2944 2944 2943 2943 2942 2942 2942 2942 2942 2942 2943 2943 2943 2944 2944 2945 2945 2944 2944 2944 2944 2944 2943 2943 2942 2941 2940 2939 2938 2938 2937 2937 2938 2938 2939 2939 2940 2940 2940 2941 2941 2942 2942 2943 2944 2946 2947 2948 2949 2950 2952 2953 2955 2957 2959 2960 2962 2963 2964 2965 2967
2960 2960 2959 2958 2958 2957 2956 2956 2955 2955 2954 2953 2952 2952 2951 2950 2949 2948 2948 2947 2947 2946 2946 2945 2945 2944 2943 2943 2943 2942 2942 2942 2942 2942 2942 2942 2943 2943 2944 2944 2944 2944 2944 2943 2943 2943 2942 2942 2942 2941 2940 2940 2939 2939 2938 2938 2937 2937 2938 2938 2938 2938 2938 2939 2939 2940 2940 2941 2942 2943 2945 2946 2946 2948 2949 2950 2952 2954 2956 2957 2958 2960 2960 2961 2962
2960 2960 2959 2959 2958 2957 2956 2956 2955 2955 2954 2953 2953 2952 2951 2951 2950 2949 2948 2948 2947 2947 2946 2945 2945 2944 2944 2944 2943 2943 2942 2942 2942 2942 2942 2942 2942 2942 2943 2943 2943 2943 2943 2943 2943 2942 2941 2941 2941 2940 2940 2939 2939 2938 2938 2938 2937 2937 2937 2937 2937 2937 2938 2938 2938 2938 2939 2940 2941 2942 2943 2944 2945 2946 2947 2948 2950 2951 2952 2954 2955 2956 2957 2958 2959
2960 2960 2959 2959 2958 2957 2957 2956 2955 2955 2954 2953 2953 2952 2951 2951 2950 2949 2949 2948 2948 2947 2946 2946 2946 2945 2945 2944 2944 2943 2943 2943 2943 2943 2943 2942 2942 2942 2942 2942 2942 2942 2942 2941 2941 2941 2940 2939 2939 2939 2938 2938 2937 2937 2937 2937 2937 2937 2937 2937 2937 2937 2937 2937 2938 2938 2938 2939 2939 2940 2941 2942 2942 2943 2944 2946 2947 2948 2949 2950 2951 2952 2953 2954 2955